Portada
METAR-TAF:

METAR-TAF

Aeroports :

Payam

Karaj, Iran

latitud: 35-46-34N, longitud: 050-49-36E, altitud: 1271 m

Observació

L'informe es va fer fa 36 minuts, a les 16:00 UTC
Vent 14 kt del Est
Temperatura 7°C
Humitat 42%
Pressió 1009 hPa
Visibilitat 10 km o més
sense núvols per sota de 1500 mi sense presència de cumulonimbus.

METAR: OIIP 201600Z 10014KT CAVOK 07/M05 Q1009 A2981

Hora: 20:06 (16:36 UTC)


TAF: manca

Observacions i pronòstics meteorològics de més de 4000 aeroports (METAR i TAF).

Les estacions disponibles són els punts grocs i vermells al mapa.

Posi el ratolí al punt desitjat per veure el nom de l'estació.

Feu clic per veure les observacions i els pronòstics meteorològics.

Per canviar el mapa: feu clic els botons verds amb una creu de color negre per apropar; al botó verd amb un guió per allunyar la imatge; o en les fletxes verdes per a mapes adjacents.


METAR-TAF: